Terminal Aerodrome Forecast
Issued by NWS

Home | Current Version | Previous Version | Text Only | Print | Product List | Glossary On
Versions: 1 2 3 4 5 6 7 8 9 10 11 12 13 14 15 16 17 18 19 20 21 22 23 24
340
FTUS43 KLSX 210520
TAFUIN
TAF
KUIN 210520Z 2106/2206 15008KT 3SM BR FEW250
     FM211000 17009KT 3SM BR FEW200 WS020/21040KT
     FM211400 20010KT P6SM SCT200
     FM220200 VRB03KT P6SM SCT110=

USA.gov is the U.S. government's official web portal to all federal, state and local government web resources and services.